Location: Westfield
(45.3617°N, 66.2417°W)
Time: 13:39:37
(UTC-04:00)

Envisat - Visible Passes

Search period start: 24 February 2018 00:00
Search period end: 06 March 2018 00:00
Orbit: 764 x 766 km, 98.2° (Epoch: 24 February)

Date Brightness Start Highest point End Pass type
(mag) Time Alt. Az. Time Alt. Az. Time Alt. Az.
24 Feb 2.9 19:43:51 10° SSE 19:48:56 83° ENE 19:54:02 10° NNW visible
24 Feb 5.9 21:26:19 10° WSW 21:28:36 13° W 21:30:53 10° WNW visible
25 Feb 3.4 19:07:38 10° SE 19:12:20 40° ENE 19:17:04 10° N visible
25 Feb 4.9 20:47:09 10° SSW 20:51:27 28° W 20:55:48 10° NW visible
26 Feb 4.3 18:32:17 10° ESE 18:35:57 20° ENE 18:39:38 10° NNE visible
26 Feb 3.5 20:09:32 10° S 20:14:32 59° W 20:19:34 10° NNW visible
27 Feb 2.9 19:32:47 10° SSE 19:37:49 67° ENE 19:42:52 10° N visible
27 Feb 5.6 21:14:10 10° SW 21:17:19 16° W 21:20:29 10° NW visible
28 Feb 3.7 18:56:48 10° SE 19:01:17 32° ENE 19:05:47 10° N visible
28 Feb 4.5 20:35:39 10° SSW 20:40:15 34° W 20:44:53 10° NNW visible
01 Mar 3.2 19:58:18 10° S 20:03:23 73° WSW 20:08:29 10° NNW visible
02 Mar 3.1 19:21:47 10° SSE 19:26:43 54° ENE 19:31:40 10° N visible
02 Mar 5.4 21:02:19 10° SW 21:06:03 20° W 21:09:49 10° NW visible
03 Mar 4.0 18:46:03 10° ESE 18:50:14 27° ENE 18:54:27 10° N visible
03 Mar 4.1 20:24:15 10° S 20:29:02 43° W 20:33:53 10° NNW visible
04 Mar 2.9 19:47:09 10° SSE 19:52:14 90° NE 19:57:21 10° NNW visible
04 Mar 5.9 21:30:12 10° WSW 21:31:58 12° W 21:33:45 10° WNW visible
05 Mar 3.3 19:10:51 10° SE 19:15:37 43° ENE 19:20:26 10° N visible
05 Mar 5.0 20:50:39 10° SSW 20:54:49 25° W 20:59:01 10° NW visible
